Weather in Ilyinskoye

Russia / Kaluga Oblast     54°58′40″N   36°10′54″E
temp.,
°C
wind,
m/s
gust,
m/s
humid.,
%
clouds,
%
prec.,
mm/h
press.,
hPa
HPBL,
m
8 march, mon
mon800:00−8wsw5148632 0.0 998486
03:00−7wsw5129161 0.0 998434
06:00−7wsw6139198 0.1 997653
09:00−7wnw6118399 0.4 999967
12:00−6nw588299 0.1 1002942
15:00−5nw467999 0.1 1005951
18:00−7nw379289 0.1 1007223
21:00−9nnw389493 0.3 1010298
9 march, tue
tue900:00−13nnw349752 0.0 101268
03:00−15nnw349740 0.0 101468
06:00−17nnw349717 0.0 101567
09:00−15nnw36959 0.0 1017242
12:00−12nnw358674 0.0 1018571
15:00−10nnw467985 0.0 1018878
18:00−13n348995 0.0 101983
21:00−17nnw339376 0.1 102226
10 march, wed
wed1000:00−19n239612 0.0 102420
03:00−20nne239824 0.0 102520
06:00−21ne229761 0.0 102622
09:00−19ne239379 0.0 1027228
12:00−16ne2381100 0.0 1028397
15:00−13ne237278 0.0 1028616
18:00−16ne23820 0.0 102823
21:00−20e23920 0.0 103022
11 march, thu
thu1100:00−22ese12920 0.0 103120
03:00−23se119214 0.0 103220
06:00−23sse128981 0.0 103220
09:00−20sse128468 0.0 103377
12:00−14sse247233 0.0 1032365
15:00−11s357316 0.0 1030605
18:00−14sse34860 0.0 102944
21:00−19sse46920 0.0 1030102
12 march, fri
fri1200:00−20sse36910 0.0 1029114
03:00−19sse489617 0.0 1027165
06:00−18sse4119375 0.0 1024259
09:00−12sse7158588 0.0 1021452
12:00−8sse91581100 0.0 1017774
15:00−6sse101892100 0.7 10131131
18:00−5sse101892100 1.3 10101234
21:00−5s101793100 2.9 10081046